Location: Newark
(48.1236°N, 0.7169°W)
Time: 05:03:44
(UTC+00:00)

Envisat - Pass Details

Date: 19 November 2019
Orbit: 764 x 766 km, 98.1° (Epoch: 07 December)

Event Time Altitude Azimuth Distance (km) Brightness Sun altitude
Rises 05:58:30 0° 24° (NNE) 3,243 6.4 -12.6°
Reaches altitude 10° 06:01:14 10° 38° (NE) 2,311 5.8 -12.2°
Maximum altitude 06:05:22 25° 92° (E) 1,530 5.5 -11.5°
Drops below altitude 10° 06:09:28 10° 147° (SSE) 2,296 6.3 -10.9°
Sets 06:12:09 0° 160° (SSE) 3,217 6.8 -10.5°
